Wind_Speed
42 42 42 42 42 42 42 43 43 44 45 46 47 48 48 48 48 47 47 47 47 47 46 45 45 45 45 44 43 43 42 42 42 42 41 40 40 39 39 39 38 38 37
42 41 42 42 42 42 42 42 43 44 45 46 47 48 48 49 49 49 48 48 48 48 48 48 46 46 45 45 45 44 43 43 44 44 44 42 42 41 41 40 40 39 38
41 41 41 41 42 42 42 43 43 44 45 46 47 48 49 49 49 49 49 50 50 50 50 49 49 47 46 46 46 45 44 44 45 45 44 44 43 43 42 41 40 39 39
41 41 41 41 42 42 43 43 44 45 45 46 47 48 49 49 49 50 50 51 51 52 52 51 50 50 49 49 48 47 46 46 45 45 46 46 45 45 43 42 41 41 41
41 40 41 41 42 42 43 44 44 45 46 47 48 48 49 49 50 50 51 51 52 52 53 54 53 52 51 50 50 49 48 47 47 47 47 47 46 46 45 44 43 43 43
41 41 41 41 42 43 43 44 45 46 47 47 48 49 50 50 51 52 52 53 53 54 54 54 55 54 53 52 51 50 49 48 47 47 47 48 48 48 47 46 45 45 44
40 41 41 41 41 42 43 43 44 46 47 48 48 49 50 51 52 52 53 53 54 55 54 54 54 54 55 54 52 51 50 49 48 48 49 48 49 49 48 47 47 47 46
39 40 41 41 42 42 43 43 44 45 46 47 49 50 51 51 52 53 54 54 54 54 54 54 54 54 54 53 53 53 51 50 50 50 49 49 49 50 49 49 49 49 48
40 40 41 41 42 43 43 44 45 46 47 48 49 50 51 52 52 53 54 53 54 55 55 54 53 52 53 54 54 53 54 53 51 51 50 50 50 50 50 50 50 49 49
39 40 41 41 42 43 44 45 46 47 47 48 49 50 51 52 52 53 53 53 53 54 54 54 53 53 53 54 55 54 54 54 53 52 52 52 51 50 50 49 49 50 50
37 38 40 41 42 43 44 44 46 47 48 49 50 51 51 51 51 52 53 53 53 53 53 53 53 53 54 54 55 55 55 53 53 53 52 52 51 51 51 50 50 49 49
35 37 38 40 40 42 42 44 45 46 47 49 49 50 50 50 50 51 52 52 52 53 52 52 52 52 53 53 54 55 55 54 53 53 53 53 52 52 51 51 50 49 49
34 36 37 39 39 41 42 43 44 45 47 48 49 50 50 50 49 49 50 51 51 52 52 51 51 52 52 52 53 53 54 54 54 54 54 53 52 51 51 50 50 50 50
33 34 36 37 38 39 40 41 42 44 45 47 48 48 49 49 49 49 49 49 50 51 51 51 51 51 51 51 52 52 53 54 54 54 53 52 51 51 50 50 51 51 51
32 33 33 35 36 37 38 40 41 42 43 45 46 47 48 48 48 48 48 49 50 50 50 50 50 50 50 50 50 50 51 52 52 52 52 52 51 51 51 50 51 51 51
30 31 32 32 33 34 36 37 39 40 41 42 44 44 45 46 46 46 45 46 47 49 50 50 50 49 49 49 49 49 49 50 50 51 52 52 51 50 51 51 51 51 50
29 30 30 31 31 31 33 34 36 37 38 39 40 41 43 43 43 44 43 43 44 46 47 48 48 48 47 47 47 47 48 48 49 50 50 50 50 50 50 50 49 49 49
28 29 29 30 31 31 32 32 33 34 35 36 37 37 38 39 40 40 40 41 42 42 44 46 46 46 46 46 47 47 47 46 47 48 48 49 49 49 48 47 47 48 48
28 28 28 29 29 30 30 30 31 33 33 34 34 34 35 36 37 37 37 38 39 40 40 41 42 43 43 44 45 45 44 44 44 44 45 46 47 47 46 46 46 47 47
29 28 28 29 29 29 29 30 31 31 32 33 33 33 33 34 34 34 35 35 36 36 37 38 39 40 40 41 41 41 41 41 41 42 42 43 44 44 45 46 46 46 46
29 29 29 29 29 30 30 30 30 31 31 31 32 32 32 32 32 33 34 34 35 35 36 36 37 38 39 39 39 40 40 39 40 40 40 41 42 42 44 45 45 45 45
28 28 29 29 29 29 29 29 28 29 29 30 30 31 31 31 32 32 33 34 34 34 34 35 36 36 37 37 37 38 38 38 39 39 39 40 41 42 43 43 43 43 43
27 28 27 27 27 27 28 28 28 28 27 28 29 29 30 30 31 31 32 32 32 33 33 34 34 35 35 36 36 37 37 39 39 39 39 40 41 41 41 41 41 42 42
26 26 25 25 26 26 27 27 27 26 26 27 27 28 29 29 30 31 31 32 32 33 33 34 33 33 34 35 35 36 37 37 38 38 38 39 40 40 40 40 41 41 41
25 25 25 25 26 26 26 25 24 24 25 25 25 26 27 27 28 29 30 30 31 31 31 31 32 32 32 33 34 34 35 35 35 36 37 38 38 38 38 39 38 38 38
24 24 24 24 24 23 23 23 22 23 23 23 24 25 26 26 27 27 27 28 29 29 30 30 30 30 31 31 31 31 32 33 34 34 35 36 36 36 35 35 35 35 35
Wind_Direction
256 256 256 256 256 255 254 252 252 252 251 250 249 249 250 250 252 252 252 252 252 253 253 254 254 256 256 256 256 256 256 257 257 259 259 259 261 262 263 265 265 266 267
256 257 257 256 255 255 254 253 252 251 251 250 250 250 250 251 252 253 253 253 252 252 253 254 254 255 256 256 256 257 257 258 258 258 258 259 260 261 263 263 264 265 267
256 256 257 256 255 255 255 254 253 252 252 251 251 251 251 252 252 253 253 253 253 253 253 254 253 253 255 256 257 257 256 258 258 258 258 259 260 261 262 263 264 267 267
256 256 256 255 255 255 255 255 253 253 254 253 253 252 252 252 253 253 254 254 254 254 254 253 253 254 255 255 256 257 257 257 258 259 259 260 261 262 262 263 264 265 267
255 256 256 256 256 256 256 256 255 255 254 254 254 253 253 253 253 254 254 254 254 254 254 253 253 253 254 255 255 256 256 256 258 259 260 261 262 262 262 263 264 265 266
256 256 256 257 257 257 257 258 257 256 255 255 254 254 253 254 254 254 255 255 254 254 254 254 253 254 254 254 255 256 256 257 257 258 260 261 261 262 263 264 264 265 266
258 258 257 257 257 257 258 258 258 257 256 255 254 253 254 255 255 255 255 255 255 254 254 255 254 253 254 255 255 256 256 256 257 258 260 261 261 262 262 263 264 264 265
259 259 259 258 258 258 258 259 259 259 257 256 255 255 254 255 256 256 256 255 255 255 255 255 254 253 253 254 254 255 255 257 257 257 259 260 260 261 262 263 265 265 264
260 260 260 259 259 259 259 260 260 259 258 257 257 257 257 257 257 257 257 256 256 256 256 255 255 254 254 254 255 255 256 256 257 258 259 260 260 261 262 263 264 264 264
262 261 261 260 260 260 260 261 261 260 259 258 258 258 258 259 258 258 257 257 256 256 255 255 255 255 255 255 255 255 256 257 257 258 259 260 259 260 261 262 262 263 264
264 263 262 262 262 262 261 261 261 260 259 259 259 259 259 260 260 259 257 256 256 256 255 255 255 255 255 255 256 255 256 257 257 258 260 260 260 261 261 261 262 263 264
266 265 263 263 263 263 262 261 261 260 259 259 259 260 260 260 260 259 257 256 255 255 255 255 255 255 256 256 256 256 256 257 257 258 259 260 261 262 261 261 261 262 263
269 268 267 265 264 264 264 262 261 260 259 259 259 260 260 260 260 260 258 257 255 255 255 256 255 256 256 257 256 256 257 257 258 258 258 259 260 260 261 261 262 262 262
273 271 270 268 266 265 264 264 263 263 262 261 260 261 260 261 260 261 259 258 256 256 255 256 256 256 257 257 257 256 257 257 258 257 257 258 259 259 260 261 261 262 263
277 276 273 271 269 267 265 265 264 265 264 263 262 261 260 261 260 259 259 258 257 256 255 256 257 257 256 256 257 257 257 257 257 257 257 258 258 260 260 261 261 263 264
278 278 277 275 272 269 268 267 266 267 266 265 264 262 261 261 260 259 258 257 257 257 256 256 256 256 256 256 256 256 256 257 256 256 257 258 259 259 260 261 262 263 264
280 280 279 278 276 273 271 270 270 269 267 266 265 263 261 260 260 259 257 257 258 258 258 257 256 256 256 255 255 256 257 256 256 256 257 258 259 259 260 261 261 262 263
282 281 280 280 280 278 275 273 271 270 268 266 265 264 262 261 260 259 258 258 259 260 259 257 255 255 255 255 255 255 255 255 257 258 258 258 259 259 260 259 261 262 263
285 284 283 281 280 279 278 276 275 272 270 268 266 266 263 262 260 259 258 258 259 260 259 256 254 254 255 255 255 254 253 255 257 258 258 258 258 259 259 260 262 263 264
284 284 285 283 281 280 279 278 278 274 272 270 268 266 264 262 260 258 257 257 259 260 259 257 254 254 254 254 253 252 253 254 255 257 258 259 260 260 260 262 263 263 263
284 283 284 284 283 281 282 281 279 276 273 271 268 265 263 261 259 258 258 259 259 259 259 258 256 255 254 253 252 252 253 253 254 256 259 259 260 260 260 262 262 263 263
285 284 285 284 283 282 281 281 281 278 275 271 267 264 263 262 260 260 260 261 260 260 260 259 258 257 255 253 251 252 253 253 254 257 260 260 261 261 261 261 262 263 263
287 286 285 283 281 281 281 281 281 278 275 271 267 264 263 262 261 261 261 262 261 261 261 259 258 258 256 254 253 254 253 255 256 258 259 261 262 262 262 261 263 264 265
288 288 286 285 283 282 281 281 281 278 274 272 269 265 263 263 262 262 261 261 261 261 261 259 257 257 255 254 255 255 255 256 258 259 260 261 261 262 262 264 264 264 265
289 289 290 290 288 285 282 281 281 280 276 273 270 267 264 263 263 263 263 262 261 261 260 259 258 256 255 255 254 255 256 258 260 261 260 261 261 262 263 264 264 264 265
291 291 291 292 290 286 284 282 282 280 278 274 270 267 265 265 267 266 264 263 263 261 260 259 257 255 255 253 254 255 256 258 260 261 261 260 260 261 262 262 262 263 263
Height
5717 5718 5719 5720 5721 5723 5724 5725 5727 5729 5731 5733 5736 5738 5741 5743 5745 5747 5748 5751 5752 5754 5756 5757 5758 5759 5761 5762 5763 5765 5766 5767 5768 5769 5770 5771 5772 5773 5773 5773 5773 5774 5773
5706 5707 5708 5709 5710 5712 5713 5715 5716 5718 5720 5722 5724 5727 5729 5731 5733 5735 5737 5739 5741 5743 5745 5747 5748 5749 5751 5752 5754 5755 5756 5757 5758 5759 5760 5762 5763 5763 5764 5764 5764 5764 5764
5695 5696 5697 5698 5699 5700 5702 5703 5705 5707 5709 5711 5713 5715 5717 5719 5721 5724 5725 5727 5729 5731 5733 5736 5738 5739 5740 5742 5743 5744 5746 5747 5748 5748 5750 5751 5753 5754 5755 5755 5755 5755 5755
5684 5685 5685 5687 5688 5689 5691 5692 5694 5696 5697 5699 5701 5703 5705 5708 5710 5712 5713 5715 5717 5719 5721 5723 5725 5727 5729 5730 5732 5733 5735 5736 5737 5738 5739 5741 5742 5743 5744 5745 5745 5745 5745
5672 5673 5674 5675 5677 5678 5680 5681 5682 5684 5685 5687 5689 5691 5693 5695 5697 5699 5701 5703 5704 5706 5708 5710 5712 5715 5717 5718 5720 5722 5723 5724 5726 5727 5728 5729 5730 5731 5732 5734 5735 5735 5735
5661 5662 5663 5664 5665 5667 5668 5669 5670 5672 5673 5675 5676 5678 5680 5682 5684 5686 5688 5690 5691 5693 5694 5696 5699 5701 5703 5705 5707 5709 5711 5712 5714 5715 5717 5718 5719 5720 5721 5722 5724 5724 5724
5650 5651 5652 5653 5654 5655 5656 5657 5658 5659 5660 5662 5664 5665 5667 5669 5671 5673 5674 5676 5678 5679 5681 5683 5685 5687 5690 5692 5694 5697 5698 5700 5702 5704 5705 5706 5708 5709 5709 5710 5711 5712 5713
5639 5640 5641 5642 5643 5644 5645 5646 5646 5647 5648 5649 5651 5652 5654 5655 5657 5659 5660 5662 5664 5665 5667 5668 5671 5673 5676 5678 5681 5684 5686 5688 5690 5691 5693 5694 5695 5696 5697 5698 5699 5700 5701
5628 5629 5630 5631 5631 5632 5633 5634 5635 5635 5636 5637 5638 5639 5641 5642 5644 5645 5646 5648 5650 5651 5653 5654 5657 5659 5662 5665 5668 5671 5673 5675 5677 5679 5680 5681 5683 5684 5685 5686 5687 5688 5689
5617 5618 5618 5619 5619 5620 5621 5622 5622 5623 5624 5624 5625 5626 5628 5629 5630 5631 5633 5634 5635 5637 5639 5641 5643 5646 5649 5652 5654 5657 5659 5662 5664 5666 5668 5669 5670 5671 5673 5674 5675 5675 5676
5606 5606 5606 5607 5607 5608 5608 5609 5610 5610 5611 5612 5612 5613 5615 5615 5616 5617 5618 5620 5621 5623 5625 5627 5630 5632 5635 5638 5641 5644 5646 5649 5651 5653 5655 5656 5657 5658 5660 5661 5662 5663 5663
5595 5595 5595 5595 5595 5595 5596 5596 5596 5597 5598 5598 5599 5600 5601 5601 5602 5603 5604 5606 5607 5609 5611 5613 5616 5619 5622 5624 5627 5629 5632 5635 5638 5640 5642 5643 5644 5645 5647 5648 5649 5650 5651
5585 5584 5584 5583 5583 5583 5583 5583 5584 5584 5585 5585 5586 5586 5587 5588 5589 5590 5591 5592 5593 5595 5598 5600 5602 5605 5608 5611 5613 5616 5618 5621 5624 5626 5628 5630 5631 5633 5634 5635 5636 5637 5638
5575 5574 5573 5572 5572 5571 5571 5571 5571 5571 5571 5572 5572 5573 5574 5575 5575 5576 5577 5579 5580 5583 5585 5587 5589 5592 5595 5597 5600 5602 5605 5607 5610 5612 5614 5616 5618 5620 5621 5622 5623 5624 5625
5565 5564 5563 5561 5561 5560 5560 5559 5559 5559 5559 5559 5559 5560 5561 5561 5562 5563 5564 5566 5567 5569 5571 5574 5576 5579 5581 5584 5586 5589 5591 5594 5596 5598 5601 5603 5605 5606 5608 5609 5610 5611 5612
5556 5554 5553 5551 5550 5549 5548 5548 5547 5547 5546 5546 5546 5546 5547 5548 5549 5550 5551 5552 5554 5556 5558 5560 5563 5565 5568 5571 5573 5576 5578 5581 5583 5585 5587 5589 5591 5593 5594 5596 5597 5597 5598
5547 5545 5543 5541 5540 5539 5538 5537 5536 5535 5534 5533 5533 5534 5534 5535 5536 5537 5538 5540 5541 5542 5544 5547 5550 5552 5555 5558 5560 5562 5565 5568 5570 5572 5574 5576 5578 5579 5581 5582 5583 5584 5585
5538 5536 5534 5532 5530 5529 5528 5526 5525 5524 5522 5522 5521 5521 5522 5523 5524 5525 5526 5528 5529 5530 5532 5534 5537 5539 5542 5545 5547 5549 5552 5555 5557 5559 5561 5563 5565 5566 5568 5569 5571 5572 5573
5529 5527 5525 5523 5521 5519 5518 5516 5514 5513 5511 5511 5510 5510 5511 5512 5512 5514 5515 5516 5517 5518 5520 5522 5524 5527 5529 5532 5534 5536 5539 5542 5545 5547 5549 5550 5552 5554 5555 5557 5559 5560 5560
5520 5518 5516 5514 5512 5510 5508 5506 5504 5502 5501 5501 5500 5500 5501 5501 5502 5504 5505 5506 5507 5508 5509 5511 5513 5515 5518 5520 5522 5524 5528 5531 5534 5535 5537 5539 5540 5542 5542 5544 5546 5547 5547
5512 5509 5507 5505 5503 5501 5498 5496 5495 5493 5492 5492 5491 5491 5492 5492 5493 5494 5495 5496 5497 5498 5499 5501 5502 5504 5507 5509 5511 5513 5516 5520 5522 5524 5526 5528 5529 5529 5530 5531 5533 5534 5534
5503 5500 5498 5496 5494 5491 5489 5488 5486 5485 5483 5483 5482 5482 5483 5483 5484 5485 5485 5486 5487 5488 5489 5491 5492 5494 5496 5498 5500 5503 5506 5508 5511 5513 5515 5516 5517 5517 5518 5519 5520 5521 5521
5494 5492 5489 5487 5485 5483 5481 5480 5478 5476 5475 5474 5474 5474 5474 5475 5475 5476 5476 5477 5477 5478 5480 5481 5483 5484 5486 5488 5490 5492 5495 5497 5499 5502 5503 5504 5505 5506 5506 5507 5508 5508 5509
5486 5484 5481 5478 5476 5474 5473 5471 5470 5468 5467 5466 5466 5466 5466 5466 5466 5467 5467 5468 5468 5469 5470 5471 5473 5475 5476 5478 5480 5482 5484 5486 5488 5490 5491 5492 5493 5494 5495 5495 5495 5496 5497
5479 5476 5474 5471 5469 5467 5465 5464 5462 5461 5460 5459 5458 5458 5458 5458 5458 5458 5458 5459 5459 5459 5460 5462 5463 5465 5467 5468 5470 5471 5474 5475 5477 5478 5480 5481 5482 5483 5483 5484 5484 5484 5485
5472 5470 5467 5464 5462 5460 5458 5457 5456 5454 5453 5451 5450 5450 5450 5450 5450 5450 5450 5450 5450 5451 5452 5453 5455 5457 5458 5459 5460 5462 5463 5465 5466 5467 5468 5469 5470 5471 5472 5473 5473 5474 5474